Jackpot

Texas Poker Multi Jackpot System

Kini Telah hadir Jackpot SUPER ROYAL FLUSH

Kini Telah hadir Jackpot 2000 (khusus table VIP keatas).

Ikutilah global jackpot yang tersedia di system kami, dengan system jackpot terbaru dan pertama di indonesia, anda dapat membeli jackpot dengan harga 100 rupiah saja dan menangkan hadiahnya hingga puluhan juta rupiah.

Jackpot bukanlah suatu keharusan untuk dibeli, namun kami memberikan suatu fitur tambahan untuk member tercinta dari www.cmdpoker.info.

Terdapat tiga pilihan harga jackpot yang bisa anda beli yaitu :100,500,1000 dan 2000(khusus table VIP Keatas) rupiah.

Hadiah dari Multi jackpot system www.cmdpoker.info

  1. full house x 10 harga jackpot yang anda beli.
      (contoh:anda membeli 1000 maka:1000 X10 = 10.000)
  2. four of kind x 250 harga jackpot yang anda beli
      (contoh:anda membeli 1000 maka:1000 X250 = 250.000)
  3. Straight flush x 1200
      (contoh:anda membeli 1000 maka:1000 X1200 = 1.200.000)
  4. Royal flush x 10000 harga jackpot yang anda beli
      (contoh:anda membeli 1000 maka:1000 X10000 = 10.000.000)
  5. SUPER ROYAL FLUSH x 30000 harga jackpot yang anda beli
      (contoh:anda membeli 1000 maka:1000 X30000 = 30.000.000)

Kondisi kartu

  1. full house adalah kondisi kartu dimana kartu anda dan kartu tengah dengan total 7 kartu bisa mendapatkan nilai 5 kartu dengan kombinasi 1 tris(three of kind) dan 1 pair, contoh 3 kartu 10 dan 2 kartu 5
  2. Four of kind adalah kondisi kartu dimana kartu anda dan kartu tengah dengan total 7 kartu bisa mendapatkan nilai 5 kartu dengan kombinasi 4 kartu yang sama jumlah dan 1 kartu apapun juga contoh anda mendapatkan 4 buah kartu angka 3 dan 1 kartu apapun.
  3. Staright flush adalah kondisi kartu dimana kartu anda dan kartu tengah dengan total 7 kartu bisa mendapatkan nilai 5 kartu dengan kombinasi seri / staright dengan kembang yang sama contoh : urutan kartu dari angka 5, 6, 7, 8 , 9 10 dengan kembang yg sama misalnya as hati
  4. Royal flush adalah kondisi kartu dimana kartu anda dan kartu tengah dengan total 7 kartu bisa mendapatkan nilai 5 kartu dengan kombinasi seri / staright dengan kembang yang sama tetapi kartu tersebut haruslah dimulai dari 10. contoh 10, Queen, Jack, King dan aces dengan kembang yang sama
  5. Super Royal flush adalah kondisi kartu dimana Kedua kartu anda digabung dengan 3 kartu pertama meja haruslah royal flush. contoh kartu anda 10,Queen kembang sama dan 3 kartu pertama meja adalah Jack, King dan aces dengan kembang yang sama

Demikian adalah penjelasan dari Multi Jackpot www.cmdpoker.info terima kasih dan selamat bermain salam hoki dari kami

Texas Poker Jackpot Winner

TOP SUPER ROYAL FLUSH
No.TanggalNamaPriceWin
122/06 11:22ARBONG88Super Royal flush30,000,000
222/06 05:29D931D25ESuper Royal flush15,000,000
322/06 00:16YAKUZA_27Super Royal flush15,000,000
421/06 23:57IZ625605Super Royal flush15,000,000
521/06 22:44RUBINI8Super Royal flush3,000,000
TOP ROYAL FLUSH
No.TanggalNamaPriceWin
122/06 12:09BEDENG006Royal flush2,000,000
222/06 11:57PISPOT92Royal flush1,000,000
322/06 11:54YLI6666Royal flush2,000,000
422/06 11:40AYAYBUNBUNRoyal flush10,000,000
522/06 11:14COOL82Royal flush10,000,000
TOP STRAIGHT FLUSH
No.TanggalNamaPriceWin
122/06 12:22DDB79708Straight Flush60,000
222/06 12:17GABUN_NNStraight Flush600,000
322/06 12:15FARIESStraight Flush600,000
422/06 12:13AAAALACH70Straight Flush120,000
522/06 12:11K03W3KAHStraight Flush1,200,000
LATEST JACKPOT
No.TanggalNamaPriceWin
122/06 12:24SCGJU0IKKYFull House2,000
222/06 12:24ANGGRI7890Full House5,000
322/06 12:24MYL8MSAPM4Full House20,000
422/06 12:24FIGTERSFull House20,000
522/06 12:24DEWIJUDI17Full House1,000
622/06 12:24SADISBETFull House2,000
722/06 12:24JACKOKYFull House1,000
822/06 12:24YAKOBOSFour Of A Kind125,000
922/06 12:24DON90SS_Full House1,000
1022/06 12:24IRULZ1Full House1,000
1122/06 12:24DONGPI69Full House5,000
1222/06 12:24Z4RSGWDM1YFull House1,000
1322/06 12:24PETIRR11Four Of A Kind250,000
1422/06 12:24BELUMROYALFull House10,000
1522/06 12:24HOKI06797Full House5,000
1622/06 12:24KVHBENN9MFFull House10,000
1722/06 12:24YULIZ4R1Full House1,000
1822/06 12:24TEMPE67Full House5,000
1922/06 12:23W1XXVFZTBGFull House2,000
2022/06 12:23SMITH5355QFull House5,000
2122/06 12:23WMWT30WCT4Full House2,000
2222/06 12:23ROMMFREDFull House10,000
2322/06 12:23ARILY02Full House5,000
2422/06 12:23QIUQIUNDARFour Of A Kind50,000
2522/06 12:23ZONK31Full House500
2622/06 12:23JUMAHCENIKFull House1,000
2722/06 12:23AWWENKFull House10,000
2822/06 12:23SHI86Full House1,000
2922/06 12:23ERIKSON08Full House1,000
3022/06 12:23WAHYURAMAYFull House10,000
3122/06 12:23WADI85Four Of A Kind50,000
3222/06 12:23IANSIFull House1,000
3322/06 12:23DAB95DBFFull House2,000
3422/06 12:23QWERTY012Full House2,000
3522/06 12:23MOLOSFour Of A Kind125,000
3622/06 12:23O808080Full House1,000
3722/06 12:23JEQKAAS1Full House2,000
3822/06 12:23ABDOELDNFull House5,000
3922/06 12:23TURUUUUKFull House10,000
4022/06 12:23HEJOOO_77Full House5,000
4122/06 12:23ABDUL327Full House2,000
4222/06 12:23YESYES2015Full House500
4322/06 12:23BERNNEO99Full House2,000
4422/06 12:23MY99LUCKYFull House2,000
4522/06 12:23DONATUR84Full House1,000
4622/06 12:23DEWAFLLASFull House10,000
4722/06 12:23JZN841XZFYFour Of A Kind125,000
4822/06 12:23ZINGA223Full House1,000
4922/06 12:23BATUR78Full House1,000
5022/06 12:23K1NGASSFour Of A Kind25,000

Domino Multi Jackpot System

Ikutilah global jackpot yang tersedia di system kami, dengan system jackpot terbaru dan pertama di indonesia, anda dapat membeli jackpot dengan harga 100 rupiah saja dan menangkan hadiahnya hingga puluhan juta rupiah.

Jackpot bukanlah suatu keharusan untuk dibeli, namun kami memberikan suatu fitur tambahan untuk member tercinta dari www.cmdpoker.info.

Terdapat tiga pilihan harga jackpot yang bisa anda beli yaitu :100,500 dan 1000 rupiah.

Hadiah dari Multi jackpot system www.cmdpoker.info

  1. Murni Kecil x 50 harga jackpot yang anda beli.
      (contoh:anda membeli 1000 maka:1000 X 50 = 50.000)
  2. Murni Besar x 50 harga jackpot yang anda beli
      (contoh:anda membeli 1000 maka:1000 X 50 = 50.000)
  3. BALAK x 100 harga jackpot yang anda beli
      (contoh:anda membeli 1000 maka:1000 X 100 = 100.000)
  4. ENAM DEWA x 6666 harga jackpot yang anda beli
      (contoh:anda membeli 1000 maka:1000 X 6666 = 6.666.000)

Demikian adalah penjelasan dari Multi Jackpot www.cmdpoker.info terima kasih dan selamat bermain salam hoki dari kami

Domino Jackpot Winner

TOP ENAM DEWA
No.TanggalNamaPriceWin
122/06 11:20WAYATI85murni enam6,666,000
222/06 10:14CB77LUSMASmurni enam6,666,000
322/06 04:33AZHA85murni enam3,333,000
422/06 04:24AMMARRmurni enam6,666,000
522/06 04:18DEKSANGKEmurni enam6,666,000
TOP BALAK
No.TanggalNamaPriceWin
122/06 12:24FIGHTERJR2balak50,000
222/06 12:23KAKAKBDbalak100,000
322/06 12:22QIANZY1001balak100,000
422/06 12:22KAKULIH98balak50,000
522/06 12:19SEMESTTAbalak100,000
LATEST JACKPOT
No.TanggalNamaPriceWin
122/06 12:24FIGHTERJR2balak50,000
222/06 12:24ETJDAYmurni besar50,000
322/06 12:23PELAGIAT99murni kecil25,000
422/06 12:23INULAAmurni besar50,000
522/06 12:23P1NT4R00murni besar25,000
622/06 12:23KAKAKBDbalak100,000
722/06 12:22BE49MISL54murni besar25,000
822/06 12:22G4DJASON99murni kecil25,000
922/06 12:22QIANZY1001balak100,000
1022/06 12:22OBC7187murni kecil50,000
1122/06 12:22KAKULIH98balak50,000
1222/06 12:22HAMPURA11murni kecil50,000
1322/06 12:21JANJI303murni besar25,000
1422/06 12:21AFL47UNmurni besar50,000
1522/06 12:19TIAN0200murni kecil50,000
1622/06 12:19SEMAR765murni besar25,000
1722/06 12:19SEMESTTAbalak100,000
1822/06 12:18BM44DIlucky9910,000
1922/06 12:16NAR_007lucky992,500
2022/06 12:16WANUEKmurni kecil50,000
2122/06 12:16DAPON9balak100,000
2222/06 12:15PAKDUKUH7murni besar5,000
2322/06 12:14I17277LEH9MD26Mmurni besar50,000
2422/06 12:14GIULLYmurni besar50,000
2522/06 12:14AP101288murni kecil50,000
2622/06 12:13ZUKY005murni besar50,000
2722/06 12:130R1murni besar50,000
2822/06 12:12LOVE_MUmurni kecil50,000
2922/06 12:11RD1979murni kecil50,000
3022/06 12:10JOE314murni besar50,000
3122/06 12:09BARONGEmurni besar5,000
3222/06 12:08SERIA99murni kecil25,000
3322/06 12:08CIHOIIY88murni besar5,000
3422/06 12:08B18H9299murni besar50,000
3522/06 12:08KARMAImurni kecil50,000
3622/06 12:08WIDIONOUZUlucky9925,000
3722/06 12:07APAYA99927balak100,000
3822/06 12:06ADIKJAILmurni kecil5,000
3922/06 12:06KAKAKBDmurni besar50,000
4022/06 12:05SEMESTTAmurni besar50,000
4122/06 12:05OM_DOBELmurni besar50,000
4222/06 12:04B0BD054Cmurni kecil25,000
4322/06 12:04AP101288murni besar50,000
4422/06 12:03ONLINE2016lucky992,500
4522/06 12:03PANDAMANDAmurni kecil5,000
4622/06 12:03VJJJJJJmurni kecil25,000
4722/06 12:02LIE200lucky992,500
4822/06 12:01PPK2017lucky99200,000
4922/06 12:00COKI07murni kecil25,000
5022/06 12:00BBMM123murni besar5,000

Ceme Multi Jackpot System

Jackpot dilihat dari gabungan kartu pemain dengan kartu bandar. Bandar harus membeli jackpot sebanyak jumlah player yang sedang duduk. Sebagai contoh bila terdapat 3 pemain duduk bermain, dan bandar memutuskan untuk membeli jackpot Rp 1.000, maka pada periode tersebut bandar akan membeli jackpot sebanyak 3xRp1.000 = Rp3.000.

Jackpot bukanlah suatu keharusan untuk dibeli, namun kami memberikan suatu fitur tambahan untuk member tercinta dari www.cmdpoker.info.

Terdapat tiga pilihan harga jackpot yang bisa anda beli yaitu :100,500 dan 1000 rupiah.

Hadiah dari Multi jackpot system www.cmdpoker.info

  1. Murni Kecil x 50 harga jackpot yang anda beli.
      (contoh:anda membeli 1000 maka:1000 X 50 = 50.000)
  2. Murni Besar x 50 harga jackpot yang anda beli
      (contoh:anda membeli 1000 maka:1000 X 50 = 50.000)
  3. BALAK x 200 harga jackpot yang anda beli
      (contoh:anda membeli 1000 maka:1000 X 200 = 200.000)
  4. ENAM DEWA x 6666 harga jackpot yang anda beli
      (contoh:anda membeli 1000 maka:1000 X 6666 = 6.666.000)

Demikian adalah penjelasan dari Multi Jackpot www.cmdpoker.info terima kasih dan selamat bermain salam hoki dari kami

Ceme Jackpot Winner

TOP ENAM DEWA
No.TanggalNamaPriceWin
122/06 12:05FIGHTHINGmurni enam6,666,000
222/06 11:32MENTRO02murni enam6,666,000
322/06 11:32TAKUK96murni enam6,666,000
422/06 11:28K4LP4Smurni enam3,333,000
522/06 11:20PAKPUKPAKmurni enam666,600
TOP BALAK
No.TanggalNamaPriceWin
122/06 12:24L0P3L0P3balak20,000
222/06 12:24RS160983balak200,000
322/06 12:24CHURUTZ90balak100,000
422/06 12:24ACOYSURYANbalak20,000
522/06 12:23DKNDAYS99balak200,000
LATEST JACKPOT
No.TanggalNamaPriceWin
122/06 12:24MEEONG22murni kecil50,000
222/06 12:24MEEONG22murni kecil50,000
322/06 12:24MARZIKUNmurni kecil50,000
422/06 12:24MEEONG22murni kecil50,000
522/06 12:24BOKSIT81murni kecil50,000
622/06 12:24L0P3L0P3balak20,000
722/06 12:24LNGS53UEYKmurni kecil25,000
822/06 12:24INNNNNDDDDmurni besar5,000
922/06 12:24ORIZA9murni besar5,000
1022/06 12:24RS160983balak200,000
1122/06 12:24CHURUTZ90balak100,000
1222/06 12:24E85005BDmurni besar50,000
1322/06 12:24TRIP571murni besar50,000
1422/06 12:24HUSNIGPmurni kecil5,000
1522/06 12:24ACOYSURYANbalak20,000
1622/06 12:24ADICT46murni kecil50,000
1722/06 12:24ARIKALERmurni kecil50,000
1822/06 12:24TETEYmurni besar5,000
1922/06 12:23DKNDAYS99balak200,000
2022/06 12:23BEAN72murni kecil50,000
2122/06 12:23GUNAK99murni kecil50,000
2222/06 12:23L1L0122murni kecil50,000
2322/06 12:23FIGHTHINGmurni kecil50,000
2422/06 12:23CABE8910murni kecil50,000
2522/06 12:23ERWIN033balak200,000
2622/06 12:23DANRAG777murni kecil25,000
2722/06 12:23MONYET2murni besar50,000
2822/06 12:23ADESA14balak100,000
2922/06 12:23BROKTAKmurni besar50,000
3022/06 12:23CINGIR1234balak200,000
3122/06 12:23BEAN72murni kecil50,000
3222/06 12:23PRAKOSO111murni kecil50,000
3322/06 12:23FAYOLA_35murni besar5,000
3422/06 12:22TAUFIQ86balak200,000
3522/06 12:22MONYET2murni besar50,000
3622/06 12:22IZOEL97murni besar50,000
3722/06 12:22MIKOKETYmurni kecil25,000
3822/06 12:22MOMOM_890murni kecil25,000
3922/06 12:22MIKOKETYmurni kecil25,000
4022/06 12:22DWTPANDI1993murni kecil25,000
4122/06 12:22BHHR1234murni kecil50,000
4222/06 12:22THREE319murni besar50,000
4322/06 12:22ASLAN221murni besar5,000
4422/06 12:22SINARDOM99balak200,000
4522/06 12:22DINATA086murni besar50,000
4622/06 12:21BHHR1234murni kecil50,000
4722/06 12:21BHEEAJA877murni kecil25,000
4822/06 12:21ASJ4CK3murni besar25,000
4922/06 12:21KASIHINbalak100,000
5022/06 12:21BOTOL3balak100,000